Terug naar catalogus

DELTA 1 DEB

ActiefPO
NORAD 13561·DEBRIS·🇺🇸 United States

Gelanceerd Mar 5, 1978 vanaf Vandenberg Space Force Base

Loading…

Volgende Passages (komende 24 uur)

TLE

VersSource: Space-Track

Epoch: Sep 14, 2026, 04:18 UTC

1 13561U 78026EY  26257.17919405  .00003476  00000-0  10648-2 0  9998
2 13561  98.9912 138.4770 0120351  34.6182 115.8990 14.38312120309473

Volg DELTA 1 DEB in realtime met AllMySat

Download on the App Store